When you browse on this site, cookies collect data to enhance your experience and personalize the content and advertising you see.
Visit our Privacy Policy to learn more. By continuing to use the site, you agree to this use of cookies and data.
  • Em Portugal
  • Lista de países
  • Para 7 dias
  • Temperatura da água
  • Mapa do tempo
  • Widgets de tempo
  • user-avatar
    Iniciar Sessão

    Previsão horária em Shkoder

    Hoje, 29 Janeiro, Quarta-feira

    Tempo Temperatura Precipitação Vento Pressão Humidade
    00:00 +10°C° 0.6 mm 4 m/s 736 mmHg 93%
    01:00 +10°C° 0.6 mm 4 m/s 736 mmHg 93%
    02:00 +10°C° 0.6 mm 4 m/s 735 mmHg 93%
    03:00 +10°C° 0.6 mm 4 m/s 735 mmHg 93%
    04:00 +8°C° 0.6 mm 4 m/s 734 mmHg 93%
    05:00 +10°C° 1.9 mm 4 m/s 735 mmHg 93%
    06:00 +10°C° 1.9 mm 4 m/s 735 mmHg 93%
    07:00 +10°C° 1.9 mm 4 m/s 735 mmHg 93%
    08:00 +10°C° 1.1 mm 4 m/s 735 mmHg 91%
    09:00 +11°C° 1.1 mm 3 m/s 736 mmHg 89%
    10:00 +12°C° 1.1 mm 2 m/s 736 mmHg 86%
    11:00 +11°C° 0.4 mm 3 m/s 736 mmHg 83%
    12:00 +12°C° 0.4 mm 3 m/s 735 mmHg 79%
    13:00 +12°C° 0.4 mm 4 m/s 735 mmHg 75%
    14:00 +11°C° 0.4 mm 3 m/s 735 mmHg 77%
    15:00 +11°C° 0.4 mm 3 m/s 735 mmHg 80%
    16:00 +10°C° 0.4 mm 2 m/s 735 mmHg 82%
    17:00 +10°C° 0.4 mm 2 m/s 736 mmHg 83%
    18:00 +10°C° 0.4 mm 1 m/s 736 mmHg 85%
    19:00 +10°C° 0.4 mm 1 m/s 737 mmHg 86%
    20:00 +9°C° 0.3 mm 1 m/s 737 mmHg 87%
    21:00 +9°C° 0.3 mm 1 m/s 738 mmHg 88%
    22:00 +9°C° 0.3 mm 1 m/s 738 mmHg 89%
    23:00 +9°C° 0.1 mm 1 m/s 738 mmHg 88%

    Amanhã, 30 Janeiro, Quinta-feira

    Tempo Temperatura Precipitação Vento Pressão Humidade
    00:00 +8°C° 0.1 mm 1 m/s 739 mmHg 88%
    01:00 +8°C° 0.1 mm 1 m/s 739 mmHg 87%
    02:00 +8°C° 0.1 mm 1 m/s 739 mmHg 88%
    03:00 +7°C° 0.1 mm 1 m/s 739 mmHg 88%
    04:00 +7°C° 0.1 mm 1 m/s 739 mmHg 89%
    05:00 +7°C° 0 mm 1 m/s 740 mmHg 88%
    06:00 +7°C° 0 mm 1 m/s 741 mmHg 87%
    07:00 +7°C° 0 mm 1 m/s 741 mmHg 86%
    08:00 +8°C° 0 mm 1 m/s 741 mmHg 82%
    09:00 +9°C° 0 mm 1 m/s 742 mmHg 79%
    10:00 +10°C° 0 mm 1 m/s 742 mmHg 75%
    11:00 +11°C° 0 mm 1 m/s 742 mmHg 72%
    12:00 +11°C° 0 mm 1 m/s 742 mmHg 70%
    13:00 +12°C° 0 mm 1 m/s 742 mmHg 68%
    14:00 +12°C° 0 mm 1 m/s 742 mmHg 70%
    15:00 +11°C° 0 mm 1 m/s 741 mmHg 73%
    16:00 +11°C° 0 mm 1 m/s 741 mmHg 75%
    17:00 +10°C° 0 mm 1 m/s 742 mmHg 78%
    18:00 +9°C° 0 mm 1 m/s 742 mmHg 80%
    19:00 +8°C° 0 mm 1 m/s 742 mmHg 82%
    20:00 +8°C° 0 mm 1 m/s 742 mmHg 82%
    21:00 +8°C° 0 mm 1 m/s 742 mmHg 81%
    22:00 +7°C° 0 mm 1 m/s 743 mmHg 81%
    23:00 +7°C° 0 mm 1 m/s 742 mmHg 80%

    Depois de amanhã, 31 Janeiro, Sexta-feira

    Tempo Temperatura Precipitação Vento Pressão Humidade
    00:00 +7°C° 0 mm 1 m/s 742 mmHg 80%
    01:00 +7°C° 0 mm 1 m/s 742 mmHg 80%
    02:00 +7°C° 0 mm 1 m/s 742 mmHg 80%
    03:00 +7°C° 0 mm 1 m/s 742 mmHg 81%
    04:00 +7°C° 0 mm 1 m/s 742 mmHg 81%
    05:00 +7°C° 0 mm 1 m/s 742 mmHg 81%
    06:00 +7°C° 0 mm 1 m/s 742 mmHg 81%
    07:00 +7°C° 0 mm 1 m/s 741 mmHg 81%
    08:00 +8°C° 0 mm 1 m/s 742 mmHg 78%
    09:00 +10°C° 0 mm 1 m/s 742 mmHg 75%
    10:00 +11°C° 0 mm 1 m/s 742 mmHg 72%
    11:00 +11°C° 0 mm 1 m/s 742 mmHg 74%
    12:00 +11°C° 0 mm 1 m/s 741 mmHg 75%
    13:00 +11°C° 0 mm 1 m/s 741 mmHg 77%
    14:00 +11°C° 0 mm 1 m/s 741 mmHg 79%
    15:00 +11°C° 0 mm 1 m/s 741 mmHg 81%
    16:00 +11°C° 0 mm 1 m/s 741 mmHg 83%
    17:00 +10°C° 0 mm 1 m/s 741 mmHg 84%
    18:00 +10°C° 0 mm 1 m/s 741 mmHg 86%
    19:00 +9°C° 0 mm 1 m/s 742 mmHg 87%
    20:00 +9°C° 0 mm 1 m/s 742 mmHg 87%
    21:00 +9°C° 0 mm 1 m/s 742 mmHg 87%
    22:00 +9°C° 0 mm 1 m/s 742 mmHg 88%
    23:00 +8°C° 0 mm 1 m/s 742 mmHg 88%

    1 Fevereiro, Sábado

    Tempo Temperatura Precipitação Vento Pressão Humidade
    00:00 +8°C° 0 mm 1 m/s 742 mmHg 87%
    01:00 +8°C° 0 mm 1 m/s 742 mmHg 87%
    02:00 +8°C° 0 mm 1 m/s 742 mmHg 87%
    03:00 +8°C° 0 mm 1 m/s 742 mmHg 87%
    04:00 +8°C° 0 mm 1 m/s 742 mmHg 86%
    05:00 +8°C° 0 mm 1 m/s 742 mmHg 86%
    06:00 +8°C° 0 mm 1 m/s 742 mmHg 85%
    07:00 +8°C° 0 mm 1 m/s 742 mmHg 85%
    08:00 +8°C° 0 mm 0 m/s 742 mmHg 81%
    09:00 +10°C° 0 mm 0 m/s 742 mmHg 77%
    10:00 +11°C° 0 mm 0 m/s 742 mmHg 73%
    11:00 +12°C° 0 mm 0 m/s 742 mmHg 72%
    12:00 +13°C° 0 mm 1 m/s 741 mmHg 70%
    13:00 +14°C° 0 mm 1 m/s 741 mmHg 69%
    14:00 +14°C° 0 mm 1 m/s 741 mmHg 72%
    15:00 +13°C° 0 mm 1 m/s 741 mmHg 76%
    16:00 +13°C° 0 mm 1 m/s 741 mmHg 80%
    17:00 +12°C° 0 mm 1 m/s 741 mmHg 83%
    18:00 +11°C° 0 mm 1 m/s 741 mmHg 86%
    19:00 +9°C° 0 mm 0 m/s 741 mmHg 88%
    20:00 +8°C° 0 mm 0 m/s 741 mmHg 89%
    21:00 +9°C° 0 mm 1 m/s 741 mmHg 89%
    22:00 +9°C° 0 mm 1 m/s 741 mmHg 90%
    23:00 +9°C° 0 mm 1 m/s 741 mmHg 90%

    2 Fevereiro, Domingo

    Tempo Temperatura Precipitação Vento Pressão Humidade
    00:00 +8°C° 0 mm 1 m/s 741 mmHg 90%
    01:00 +8°C° 0 mm 1 m/s 740 mmHg 91%
    02:00 +8°C° 0 mm 1 m/s 740 mmHg 91%
    03:00 +8°C° 0 mm 1 m/s 740 mmHg 91%
    04:00 +8°C° 0 mm 1 m/s 740 mmHg 92%
    05:00 +8°C° 0 mm 1 m/s 740 mmHg 92%
    06:00 +8°C° 0 mm 1 m/s 740 mmHg 92%
    07:00 +8°C° 0 mm 1 m/s 740 mmHg 92%
    08:00 +9°C° 0.7 mm 1 m/s 741 mmHg 93%
    09:00 +9°C° 0.7 mm 1 m/s 741 mmHg 94%
    10:00 +9°C° 0.7 mm 1 m/s 742 mmHg 95%
    11:00 +8°C° 0.8 mm 2 m/s 742 mmHg 91%
    12:00 +8°C° 0.8 mm 2 m/s 742 mmHg 88%
    13:00 +8°C° 0.8 mm 3 m/s 742 mmHg 85%
    14:00 +8°C° 0 mm 2 m/s 743 mmHg 81%
    15:00 +8°C° 0 mm 2 m/s 743 mmHg 78%
    16:00 +8°C° 0 mm 2 m/s 744 mmHg 75%
    17:00 +8°C° 0 mm 2 m/s 744 mmHg 75%
    18:00 +7°C° 0 mm 2 m/s 744 mmHg 75%
    19:00 +5°C° 0 mm 3 m/s 744 mmHg 75%
    20:00 +5°C° 0 mm 3 m/s 745 mmHg 74%
    21:00 +5°C° 0 mm 3 m/s 745 mmHg 73%
    22:00 +4°C° 0 mm 3 m/s 745 mmHg 71%
    23:00 +5°C° 0 mm 2 m/s 745 mmHg 69%

    3 Fevereiro, Segunda-feira

    Tempo Temperatura Precipitação Vento Pressão Humidade
    00:00 +5°C° 0 mm 2 m/s 745 mmHg 67%
    01:00 +5°C° 0 mm 2 m/s 745 mmHg 65%
    02:00 +6°C° 0 mm 2 m/s 745 mmHg 63%
    03:00 +6°C° 0 mm 2 m/s 745 mmHg 61%
    04:00 +6°C° 0 mm 2 m/s 744 mmHg 59%
    05:00 +6°C° 0 mm 2 m/s 744 mmHg 57%
    06:00 +6°C° 0 mm 2 m/s 744 mmHg 55%
    07:00 +7°C° 0 mm 1 m/s 744 mmHg 54%
    08:00 +9°C° 0 mm 1 m/s 745 mmHg 52%
    09:00 +11°C° 0 mm 1 m/s 745 mmHg 50%
    10:00 +12°C° 0 mm 1 m/s 745 mmHg 48%
    11:00 +13°C° 0 mm 1 m/s 745 mmHg 47%
    12:00 +14°C° 0 mm 1 m/s 744 mmHg 46%
    13:00 +15°C° 0 mm 1 m/s 744 mmHg 46%
    14:00 +15°C° 0 mm 1 m/s 744 mmHg 51%
    15:00 +13°C° 0 mm 0 m/s 744 mmHg 56%
    16:00 +13°C° 0 mm 0 m/s 743 mmHg 62%
    17:00 +12°C° 0 mm 0 m/s 744 mmHg 62%
    18:00 +11°C° 0 mm 0 m/s 744 mmHg 63%
    19:00 +10°C° 0 mm 0 m/s 744 mmHg 64%
    20:00 +10°C° 0 mm 0 m/s 744 mmHg 64%
    21:00 +10°C° 0 mm 0 m/s 744 mmHg 64%
    22:00 +9°C° 0 mm 0 m/s 744 mmHg 65%
    23:00 +9°C° 0 mm 0 m/s 744 mmHg 65%
    Mostrar mais